Flag for Poland Weather past 2 weeks in Grudziądz, Poland

Now
48 °F

Low clouds.


Feels Like: 47 °F
Forecast: 38 / 56 °F
Wind: 3 mph from North

Location: Torun

Current Time: Apr 28, 2015 at 3:01:50 PM

Latest Report: Apr 28, 2015 at 2:00 PM


Visibility: 17 mi

Pressure: 29.75 "Hg

Humidity: 87%

Dew point: 44 °F

Location of GrudziądzLocation

Historic Weather in Grudziądz — Graph

°F

Grudziądz temperature yesterday

Maximum temperature yesterday: 74 °F (at 5:00 PM)
Minimum temperature yesterday: 49 °F (at 6:00 AM)
Average temperature yesterday: 63 °F

Past Weeks' High & Low Weather Summary

 TemperatureHumidityPressure
High74 °F (Apr 27, 5:00 PM)95% (Apr 22, 6:00 AM)30.25 "Hg (Apr 22, 6:00 AM)
Low29 °F (Apr 22, 6:00 AM)26% (Apr 25, 2:00 PM)29.56 "Hg (Apr 27, 7:00 PM)
Average50 °F62%29.96 "Hg
* Reported Apr 13 1:00 PM — Apr 28 1:00 PM, Grudziądz, Weather by CustomWeather, © 2015

Note: Actual official high and low records may vary slightly from our data, if they occured in-between our weather recording intervals... More about our weather records

Advertising

Grudziądz weather history for previous 24 hours

 ConditionsComfort  
Time TempWeatherWind HumidityBarometerVisibility
1:00 PM
Tue, Apr 28
48 °FLight rain. Overcast.3 mph87%29.74 "Hg12 mi
12:00 PM47 °FLight rain. Overcast.3 mph88%29.73 "Hg12 mi
11:00 AM47 °FLow clouds.3 mph91%29.71 "Hg14 mi
10:00 AM48 °FLow clouds.5 mph94%29.69 "Hg6 mi
9:00 AM48 °FLight rain. Low clouds.3 mph95%29.67 "Hg6 mi
8:00 AM49 °FLight rain. Low clouds.3 mph94%29.66 "Hg6 mi
7:00 AM50 °FLight rain. Low clouds.3 mph94%29.63 "Hg7 mi
6:00 AM50 °FOvercast.5 mph94%29.61 "Hg6 mi
5:00 AM52 °FLow clouds.3 mph95%29.62 "Hg2 mi
4:00 AM54 °FFog.2 mph95%29.60 "Hg2 mi
3:00 AM54 °FLow clouds.3 mph95%29.60 "Hg2 mi
2:00 AM54 °FFog.1 mph94%29.60 "Hg4 mi
1:00 AM56 °FThunderstorms. Low clouds.1 mph94%29.60 "Hg3 mi
12:00 AM57 °FThundershowers. Overcast.3 mph92%29.62 "Hg5 mi
11:00 PM
Mon, Apr 27
58 °FThunderstorms. Overcast.2 mph88%29.60 "Hg2 mi
10:00 PM60 °FThundershowers. Overcast.5 mph81%29.58 "Hg12 mi
9:00 PM69 °FThundershowers. Overcast.3 mph53%29.57 "Hg19 mi
8:00 PM70 °FThunderstorms. Overcast.3 mph46%29.56 "Hg28 mi
7:00 PM72 °FOvercast.3 mph42%29.56 "Hg31 mi
6:00 PM73 °FOvercast.5 mph41%29.57 "Hg28 mi
5:00 PM74 °FOvercast.5 mph41%29.59 "Hg28 mi
4:00 PM74 °FPartly sunny.6 mph41%29.60 "Hg25 mi
3:00 PM73 °FPartly sunny.6 mph39%29.61 "Hg25 mi
Weather by CustomWeather, © 2015

See weather overviewHow to use our weather pages